Location: *
(34.8620°S, 39.3380°E)
Time: 09:33:10
(UTC+00:00)

CZ-4B R/B - Pass Details

Date: 27 July 2021
Orbit: 809 x 881 km, 99.1° (Epoch: 22 September)

Event Time Altitude Azimuth Distance (km) Brightness Sun altitude
Rises 03:42:51 0° 4° (N) 3,367 6.6 -8.1°
Reaches altitude 10° 03:45:13 10° 0° (N) 2,452 5.9 -7.7°
Maximum altitude 03:50:34 58° 281° (WNW) 995 3.3 -6.6°
Drops below altitude 10° 03:56:06 10° 202° (SSW) 2,529 5.3 -5.6°
Sets 03:58:34 0° 198° (SSW) 3,483 6.0 -5.1°
